Location: Neuvy Saint Sepulchre
(46.5953°N, 1.8122°E)
Time: 14:03:15
(UTC+02:00)

ISS - Pass Details

Date: 20 September 2022
Orbit: 414 x 417 km, 51.6° (Epoch: 01 October)

Event Time Altitude Azimuth Distance (km) Brightness Sun altitude
Rises 21:18:57 0° 261° (W) 2,359 1.2 -15.1°
Reaches altitude 10° 21:21:06 10° 268° (W) 1,497 0.2 -15.4°
Maximum altitude 21:24:21 47° 343° (NNW) 567 -2.9 -15.9°
Enters shadow 21:26:16 21° 49° (NE) 990 -2.2 -16.3°
